Time,TemperatureF,DewpointF,PressureIn,WindDirection,WindDirectionDegrees,WindSpeedMPH,WindSpeedGustMPH,Humidity,HourlyPrecipIn,Conditions,Clouds,dailyrainin,SoftwareType,DateUTC
2013-04-01 00:24:00,46.0,44.0,-100.00,SE,144,10.0,18.0,93,0.05,,,-99.99,,2013-04-01 04:24:00,
2013-04-01 00:33:00,46.0,44.0,-100.00,SE,144,10.0,18.0,93,0.05,,,-99.99,,2013-04-01 04:33:00,
2013-04-01 00:43:00,46.0,44.0,-100.00,SE,144,10.0,18.0,93,0.05,,,-99.99,,2013-04-01 04:43:00,
2013-04-01 01:23:00,45.0,44.0,-100.00,SE,133,11.0,19.0,95,0.20,,,-99.99,,2013-04-01 05:23:00,
2013-04-01 01:33:00,45.0,44.0,-100.00,SE,133,11.0,19.0,95,0.20,,,-99.99,,2013-04-01 05:33:00,
2013-04-01 01:43:00,45.0,44.0,-100.00,SE,133,11.0,19.0,95,0.20,,,-99.99,,2013-04-01 05:43:00,
2013-04-01 02:23:00,46.0,45.0,-100.00,SSE,160,7.0,19.0,96,0.05,,,-99.99,,2013-04-01 06:23:00,
2013-04-01 02:33:00,46.0,45.0,-100.00,SSE,160,7.0,19.0,96,0.05,,,-99.99,,2013-04-01 06:33:00,
2013-04-01 02:43:00,46.0,45.0,-100.00,SSE,160,7.0,19.0,96,0.05,,,-99.99,,2013-04-01 06:43:00,
2013-04-01 03:22:00,47.0,46.0,-100.00,South,191,5.0,14.0,97,0.02,,,-99.99,,2013-04-01 07:22:00,
2013-04-01 03:32:00,47.0,46.0,-100.00,South,191,5.0,14.0,97,0.02,,,-99.99,,2013-04-01 07:32:00,
2013-04-01 03:42:00,47.0,46.0,-100.00,South,191,5.0,14.0,97,0.02,,,-99.99,,2013-04-01 07:42:00,
2013-04-01 04:22:00,46.0,45.0,-100.00,WSW,238,9.0,23.0,97,0.00,,,-99.99,,2013-04-01 08:22:00,
2013-04-01 04:32:00,46.0,45.0,-100.00,WSW,238,9.0,23.0,97,0.00,,,-99.99,,2013-04-01 08:32:00,
2013-04-01 04:43:00,46.0,45.0,-100.00,WSW,238,9.0,23.0,97,0.00,,,-99.99,,2013-04-01 08:43:00,
2013-04-01 05:23:00,45.0,44.0,-100.00,West,262,5.0,12.0,98,0.00,,,-99.99,,2013-04-01 09:23:00,
2013-04-01 05:33:00,45.0,44.0,-100.00,West,262,5.0,12.0,98,0.00,,,-99.99,,2013-04-01 09:33:00,
2013-04-01 05:43:00,45.0,44.0,-100.00,West,262,5.0,12.0,98,0.00,,,-99.99,,2013-04-01 09:43:00,
2013-04-01 06:23:00,45.0,44.0,-100.00,WNW,286,5.0,12.0,98,0.00,,,-99.99,,2013-04-01 10:23:00,
2013-04-01 06:33:00,45.0,44.0,-100.00,WNW,286,5.0,12.0,98,0.00,,,-99.99,,2013-04-01 10:33:00,
2013-04-01 06:42:00,45.0,44.0,-100.00,WNW,286,5.0,12.0,98,0.00,,,-99.99,,2013-04-01 10:42:00,
2013-04-01 07:23:00,45.0,44.0,-100.00,WSW,245,2.0,6.0,97,0.00,,,-99.99,,2013-04-01 11:23:00,
2013-04-01 07:33:00,45.0,44.0,-100.00,WSW,245,2.0,6.0,97,0.00,,,-99.99,,2013-04-01 11:33:00,
2013-04-01 07:43:00,45.0,44.0,-100.00,WSW,245,2.0,6.0,97,0.00,,,-99.99,,2013-04-01 11:43:00,
2013-04-01 08:23:00,45.0,44.0,-100.00,WNW,284,3.0,13.0,94,0.00,,,-99.99,,2013-04-01 12:23:00,
2013-04-01 08:32:00,45.0,44.0,-100.00,WNW,284,3.0,13.0,94,0.00,,,-99.99,,2013-04-01 12:32:00,
2013-04-01 08:42:00,45.0,44.0,-100.00,WNW,284,3.0,13.0,94,0.00,,,-99.99,,2013-04-01 12:42:00,
2013-04-01 09:22:00,47.0,43.0,-100.00,NW,308,7.0,13.0,85,0.00,,,-99.99,,2013-04-01 13:22:00,
2013-04-01 09:33:00,47.0,43.0,-100.00,NW,308,7.0,13.0,85,0.00,,,-99.99,,2013-04-01 13:33:00,
2013-04-01 09:42:00,47.0,43.0,-100.00,NW,308,7.0,13.0,85,0.00,,,-99.99,,2013-04-01 13:42:00,
2013-04-01 10:23:00,49.0,42.0,-100.00,WNW,284,5.0,12.0,78,0.00,,,-99.99,,2013-04-01 14:23:00,
2013-04-01 10:33:00,49.0,42.0,-100.00,WNW,284,5.0,12.0,78,0.00,,,-99.99,,2013-04-01 14:33:00,
2013-04-01 10:42:00,49.0,42.0,-100.00,WNW,284,5.0,12.0,78,0.00,,,-99.99,,2013-04-01 14:42:00,
2013-04-01 11:23:00,48.0,43.0,-100.00,WSW,240,6.0,14.0,80,-99.99,,,-99.99,,2013-04-01 15:23:00,
2013-04-01 11:34:00,48.0,43.0,-100.00,WSW,240,6.0,14.0,80,-99.99,,,-99.99,,2013-04-01 15:34:00,
2013-04-01 11:43:00,48.0,43.0,-100.00,WSW,240,6.0,14.0,80,-99.99,,,-99.99,,2013-04-01 15:43:00,
2013-04-01 12:23:00,48.0,43.0,-100.00,WSW,244,8.0,19.0,83,0.00,,,-99.99,,2013-04-01 16:23:00,
2013-04-01 12:33:00,48.0,43.0,-100.00,WSW,244,8.0,19.0,83,0.00,,,-99.99,,2013-04-01 16:33:00,
2013-04-01 12:43:00,48.0,43.0,-100.00,WSW,244,8.0,19.0,83,0.00,,,-99.99,,2013-04-01 16:43:00,
2013-04-01 13:23:00,49.0,44.0,-100.00,WSW,238,6.0,15.0,82,0.00,,,-99.99,,2013-04-01 17:23:00,
2013-04-01 13:32:00,49.0,44.0,-100.00,WSW,238,6.0,15.0,82,0.00,,,-99.99,,2013-04-01 17:32:00,
2013-04-01 13:42:00,49.0,44.0,-100.00,WSW,238,6.0,15.0,82,0.00,,,-99.99,,2013-04-01 17:42:00,
2013-04-01 14:22:00,52.0,43.0,-100.00,WSW,241,7.0,17.0,72,0.00,,,-99.99,,2013-04-01 18:22:00,
2013-04-01 14:33:00,52.0,43.0,-100.00,WSW,241,7.0,17.0,72,0.00,,,-99.99,,2013-04-01 18:33:00,
2013-04-01 14:43:00,52.0,43.0,-100.00,WSW,241,7.0,17.0,72,0.00,,,-99.99,,2013-04-01 18:43:00,
2013-04-01 15:23:00,53.0,44.0,-100.00,WSW,244,7.0,18.0,70,0.00,,,-99.99,,2013-04-01 19:23:00,
2013-04-01 15:32:00,53.0,44.0,-100.00,WSW,244,7.0,18.0,70,0.00,,,-99.99,,2013-04-01 19:32:00,
2013-04-01 15:42:00,53.0,44.0,-100.00,WSW,244,7.0,18.0,70,0.00,,,-99.99,,2013-04-01 19:42:00,
2013-04-01 16:23:00,53.0,44.0,-100.00,WSW,242,7.0,18.0,70,0.00,,,-99.99,,2013-04-01 20:23:00,
2013-04-01 16:33:00,53.0,44.0,-100.00,WSW,242,7.0,18.0,70,0.00,,,-99.99,,2013-04-01 20:33:00,
2013-04-01 16:43:00,53.0,44.0,-100.00,WSW,242,7.0,18.0,70,0.00,,,-99.99,,2013-04-01 20:43:00,
2013-04-01 17:23:00,52.0,43.0,-100.00,WSW,245,7.0,19.0,71,0.00,,,-99.99,,2013-04-01 21:23:00,
2013-04-01 17:33:00,52.0,43.0,-100.00,WSW,245,7.0,19.0,71,0.00,,,-99.99,,2013-04-01 21:33:00,
2013-04-01 17:43:00,52.0,43.0,-100.00,WSW,245,7.0,19.0,71,0.00,,,-99.99,,2013-04-01 21:43:00,
2013-04-01 18:23:00,50.0,41.0,-100.00,WSW,252,8.0,18.0,72,0.00,,,-99.99,,2013-04-01 22:23:00,
2013-04-01 18:33:00,50.0,41.0,-100.00,WSW,252,8.0,18.0,72,0.00,,,-99.99,,2013-04-01 22:33:00,
2013-04-01 18:43:00,50.0,41.0,-100.00,WSW,252,8.0,18.0,72,0.00,,,-99.99,,2013-04-01 22:43:00,
2013-04-01 19:23:00,47.0,42.0,-100.00,West,276,5.0,19.0,83,0.00,,,-99.99,,2013-04-01 23:23:00,
2013-04-01 19:32:00,47.0,42.0,-100.00,West,276,5.0,19.0,83,0.00,,,-99.99,,2013-04-01 23:32:00,
2013-04-01 19:43:00,47.0,42.0,-100.00,West,276,5.0,19.0,83,0.00,,,-99.99,,2013-04-01 23:43:00,
2013-04-01 20:22:00,45.0,42.0,-100.00,NW,319,9.0,19.0,90,0.03,,,-99.99,,2013-04-02 00:22:00,
2013-04-01 20:33:00,45.0,42.0,-100.00,NW,319,9.0,19.0,90,0.03,,,-99.99,,2013-04-02 00:33:00,
2013-04-01 20:43:00,45.0,42.0,-100.00,NW,319,9.0,19.0,90,0.03,,,-99.99,,2013-04-02 00:43:00,
2013-04-01 21:22:00,40.0,37.0,-100.00,NNW,330,9.0,20.0,86,0.06,,,-99.99,,2013-04-02 01:22:00,
2013-04-01 21:32:00,40.0,37.0,-100.00,NNW,330,9.0,20.0,86,0.06,,,-99.99,,2013-04-02 01:32:00,
2013-04-01 21:43:00,40.0,37.0,-100.00,NNW,330,9.0,20.0,86,0.06,,,-99.99,,2013-04-02 01:43:00,
2013-04-01 22:22:00,40.0,31.0,-100.00,NNW,337,8.0,14.0,68,0.01,,,-99.99,,2013-04-02 02:22:00,
2013-04-01 22:32:00,40.0,31.0,-100.00,NNW,337,8.0,14.0,68,0.01,,,-99.99,,2013-04-02 02:32:00,
2013-04-01 22:42:00,40.0,31.0,-100.00,NNW,337,8.0,14.0,68,0.01,,,-99.99,,2013-04-02 02:42:00,
2013-04-01 23:22:00,40.0,25.0,-100.00,NNW,337,7.0,18.0,54,0.00,,,-99.99,,2013-04-02 03:22:00,
2013-04-01 23:33:00,40.0,25.0,-100.00,NNW,337,7.0,18.0,54,0.00,,,-99.99,,2013-04-02 03:33:00,
2013-04-01 23:43:00,40.0,25.0,-100.00,NNW,337,7.0,18.0,54,0.00,,,-99.99,,2013-04-02 03:43:00,